Starlink 30069

operational
NORAD ID: 56834 Int'l Des: 2023-079 Owner: SPXS Country: US Constellation: starlink
LEOCIRCULAR

Über Starlink 30069

Beschreibung wird geladen...

Live-Position

3D-Globus wird geladen...

Nächste Überflüge

Höhenverlauf

Altitude vs Time

uPlot chart will show altitude changes over time

Zweizeiliger Elementsatz

1 56834U 23079M 25351.62538647 -.00004740 00000-0 -33590-3 0 9994
2 56834 43.0022 192.9481 0001259 264.8065 95.2634 15.02550563140546
Epoch: 17. Dez. 2025 • Age: 18 hours

Aktueller Status

Höhe 561.6 km
Geschwindigkeit 7.58 km/s
Subsatellitenpunkt -14.86°S, 156.15°E
Startdatum 4. Juni 2023
Alter 2.5 years
Typ internet

Technische Details

Klassifizierung Payload
Masse 730.00 kg
Trockenmasse 700.00 kg
Gesamtmasse 730.00 kg
Länge 0.30 m
Durchmesser 4.10 m
Spannweite 29.00 m
Form Box + pan
Hersteller SPXS
Bus-Typ Starlink V2M
Phasenstatus In Orbit
Besitzer/Staat SPXS/US

Große Konstellationen

Loading constellations...